Weather History for Claremore, OK

Change the Weather History Date:

Monday, July 22, 2013

  Actual Average (KTUL) Record (KTUL)
Temperature  
Mean Temperature 80 °F 83 °F  
Max Temperature 89 °F 94 °F 109 °F (1974)
Min Temperature 71 °F 73 °F 57 °F (1970)
Cooling Degree Days 15 18  
Month to date cooling degree days 386  
Year to date cooling degree days 999  
Since 1 June cooling degree days 765  
Growing Degree Days 30 (Base 50)    
Moisture  
Dew Point 71 °F    
Average Humidity 71    
Maximum Humidity 94    
Minimum Humidity 46    
Precipitation  
Precipitation 0.00 in 0.10 in 3.12 in (1960)
Month to date precipitation 2.50  
Year to date precipitation 23.72  
Sea Level Pressure  
Sea Level Pressure 29.89 in    
Wind  
Wind Speed 8 mph (SSE)    
Max Wind Speed 18 mph    
Max Gust Speed 18 mph    
Visibility 10 miles    
Events Thunderstorm    
T = Trace of Precipitation, MM = Missing Value Source: NWS Daily Summary

Daily Weather History Graph

Daily Weather History Graph

Search for Another Location

Airport:

Trip Planner

Search our weather history database for the weather conditions in past years. The results will help you decide how hot, cold, wet, or windy it might be!

Date:

Astronomy

Jul. 22, 2013 Rise Set
Actual Time 6:21 AM CDT 8:35 PM CDT
Civil Twilight 5:52 AM CDT 9:04 PM CDT
Nautical Twilight 5:16 AM CDT 9:39 PM CDT
Astronomical Twilight 4:37 AM CDT 10:18 PM CDT
Moon 8:25 PM CDT (7/22) 6:16 AM CDT (7/22)
Length of Visible Light 15h 12m
Length of Day
14h 14m
Full, 100% of the Moon is Illuminated
Jul 22
Full
Jul 22
Full
Jul 29
Last Quarter
Aug 6
New
Aug 14
First Quarter

Hourly Weather History & Observations

Time (CDT) Temp. Heat Index Dew Point Humidity Pressure Visibility Wind Dir Wind Speed Gust Speed Precip Events Conditions
12:15 AM 77.0 °F - 71.6 °F 83% 29.88 in 10.0 mi SE 9.2 mph - N/A   Clear
12:35 AM 77.0 °F - 71.6 °F 83% 29.88 in 10.0 mi SSE 6.9 mph - N/A   Clear
12:55 AM 77.0 °F - 71.6 °F 83% 29.88 in 10.0 mi SSE 5.8 mph - N/A   Clear
1:15 AM 77.0 °F - 71.6 °F 83% 29.88 in 10.0 mi South 8.1 mph - N/A   Clear
1:35 AM 77.0 °F - 71.6 °F 83% 29.87 in 10.0 mi South 8.1 mph - N/A   Clear
1:55 AM 77.0 °F - 71.6 °F 83% 29.87 in 10.0 mi South 9.2 mph - N/A   Clear
2:15 AM 77.0 °F - 71.6 °F 83% 29.86 in 10.0 mi South 9.2 mph - N/A   Clear
2:35 AM 77.0 °F - 69.8 °F 78% 29.86 in 10.0 mi South 10.4 mph - N/A   Clear
2:55 AM 77.0 °F - 69.8 °F 78% 29.86 in 10.0 mi South 9.2 mph - N/A   Clear
3:15 AM 77.0 °F - 69.8 °F 78% 29.86 in 10.0 mi South 5.8 mph - N/A   Clear
3:35 AM 77.0 °F - 69.8 °F 78% 29.86 in 10.0 mi South 5.8 mph - N/A   Clear
3:55 AM 75.2 °F - 69.8 °F 83% 29.86 in 10.0 mi South 6.9 mph - N/A   Clear
4:15 AM 77.0 °F - 69.8 °F 78% 29.86 in 10.0 mi SSW 8.1 mph - N/A   Clear
4:35 AM 77.0 °F - 69.8 °F 78% 29.86 in 10.0 mi SSW 8.1 mph - N/A   Clear
4:55 AM 75.2 °F - 69.8 °F 83% 29.86 in 10.0 mi South 6.9 mph - N/A   Clear
5:15 AM 75.2 °F - 69.8 °F 83% 29.86 in 10.0 mi South 6.9 mph - N/A   Clear
5:35 AM 73.4 °F - 69.8 °F 88% 29.86 in 10.0 mi South 4.6 mph - N/A   Clear
5:55 AM 73.4 °F - 69.8 °F 88% 29.87 in 10.0 mi South 3.5 mph - N/A   Clear
6:15 AM 71.6 °F - 68.0 °F 88% 29.87 in 10.0 mi South 5.8 mph - N/A   Clear
6:35 AM 71.6 °F - 69.8 °F 94% 29.88 in 10.0 mi South 5.8 mph - N/A   Clear
6:55 AM 71.6 °F - 69.8 °F 94% 29.88 in 10.0 mi South 4.6 mph - N/A   Clear
7:15 AM 73.4 °F - 69.8 °F 88% 29.88 in 10.0 mi SSE 3.5 mph - N/A   Clear
7:35 AM 75.2 °F - 69.8 °F 83% 29.88 in 10.0 mi South 4.6 mph - N/A   Clear
7:55 AM 77.0 °F - 69.8 °F 78% 29.89 in 10.0 mi South 5.8 mph - N/A   Clear
8:15 AM 78.8 °F - 69.8 °F 74% 29.89 in 10.0 mi SSW 8.1 mph - N/A   Clear
8:35 AM 80.6 °F 83.9 °F 69.8 °F 70% 29.90 in 10.0 mi SSW 11.5 mph - N/A Thunderstorm Clear
8:55 AM 80.6 °F 84.6 °F 71.6 °F 74% 29.91 in 10.0 mi South 8.1 mph - N/A   Clear
9:55 AM 82.4 °F 86.3 °F 69.8 °F 66% 29.93 in 10.0 mi SSE 4.6 mph - N/A Thunderstorm Clear
10:15 AM 84.2 °F 89.6 °F 71.6 °F 66% 29.93 in 10.0 mi SE 9.2 mph - N/A   Clear
10:35 AM 86.0 °F 91.8 °F 71.6 °F 62% 29.93 in 10.0 mi SSE 6.9 mph - N/A   Clear
10:55 AM 87.8 °F 93.8 °F 71.6 °F 58% 29.94 in 10.0 mi SE 8.1 mph - N/A   Clear
11:15 AM 87.8 °F 93.8 °F 71.6 °F 58% 29.95 in 10.0 mi ESE 13.8 mph - N/A   Clear
11:35 AM 87.8 °F 93.8 °F 71.6 °F 58% 29.95 in 10.0 mi ESE 13.8 mph 18.4 mph N/A   Scattered Clouds
11:55 AM 86.0 °F 91.8 °F 71.6 °F 62% 29.96 in 10.0 mi East 17.3 mph - N/A   Scattered Clouds
12:15 PM 84.2 °F 88.4 °F 69.8 °F 62% 29.96 in 10.0 mi East 15.0 mph - N/A   Scattered Clouds
12:35 PM 84.2 °F 87.3 °F 68.0 °F 58% 29.95 in 10.0 mi ESE 18.4 mph - N/A   Scattered Clouds
12:55 PM 86.0 °F 90.4 °F 69.8 °F 58% 29.95 in 10.0 mi SE 13.8 mph - N/A   Clear
1:15 PM 87.8 °F 93.8 °F 71.6 °F 58% 29.95 in 10.0 mi SE 13.8 mph - N/A   Clear
1:35 PM 86.0 °F 91.8 °F 71.6 °F 62% 29.94 in 10.0 mi SE 12.7 mph - N/A   Scattered Clouds
1:55 PM 87.8 °F 93.8 °F 71.6 °F 58% 29.95 in 10.0 mi ESE 8.1 mph - N/A Thunderstorm Scattered Clouds
2:15 PM 86.0 °F 91.8 °F 71.6 °F 62% 29.94 in 10.0 mi South 8.1 mph - N/A Thunderstorm Clear
2:35 PM 84.2 °F 90.9 °F 73.4 °F 70% 29.94 in 10.0 mi SW 10.4 mph - N/A   Clear
2:55 PM 80.6 °F 82.3 °F 64.4 °F 58% 29.94 in 10.0 mi South 11.5 mph - N/A Thunderstorm Clear
3:15 PM 78.8 °F - 68.0 °F 69% 29.94 in 10.0 mi SSE 9.2 mph 16.1 mph N/A   Clear
3:35 PM 82.4 °F 86.3 °F 69.8 °F 66% 29.93 in 10.0 mi South 5.8 mph - N/A   Clear
3:55 PM 84.2 °F 88.4 °F 69.8 °F 62% 29.93 in 10.0 mi SE 9.2 mph - N/A   Clear
4:15 PM 82.4 °F 86.3 °F 69.8 °F 66% 29.91 in 10.0 mi SE 12.7 mph - N/A   Clear
4:35 PM 84.2 °F 88.4 °F 69.8 °F 62% 29.90 in 10.0 mi SSE 10.4 mph - N/A   Clear
4:55 PM 86.0 °F 89.4 °F 68.0 °F 55% 29.89 in 10.0 mi South 11.5 mph - N/A   Clear
5:15 PM 87.8 °F 91.4 °F 68.0 °F 52% 29.88 in 10.0 mi SSE 10.4 mph - N/A   Clear
5:35 PM 87.8 °F 89.4 °F 64.4 °F 46% 29.88 in 10.0 mi SSE 8.1 mph - N/A   Clear
5:55 PM 87.8 °F 90.4 °F 66.2 °F 49% 29.88 in 10.0 mi SSE 9.2 mph - N/A   Clear
6:15 PM 89.6 °F 93.4 °F 68.0 °F 49% 29.87 in 10.0 mi South 8.1 mph - N/A   Clear
6:35 PM 87.8 °F 93.8 °F 71.6 °F 58% 29.87 in 10.0 mi SSE 10.4 mph 16.1 mph N/A   Clear
6:55 PM 87.8 °F 95.6 °F 73.4 °F 62% 29.88 in 10.0 mi South 6.9 mph - N/A   Clear
7:15 PM 86.0 °F 93.4 °F 73.4 °F 66% 29.88 in 10.0 mi South 6.9 mph 10.4 mph N/A   Clear
7:35 PM 84.2 °F 90.9 °F 73.4 °F 70% 29.88 in 10.0 mi South 6.9 mph - N/A   Clear
7:55 PM 84.2 °F 90.9 °F 73.4 °F 70% 29.88 in 10.0 mi South 5.8 mph - N/A   Clear
8:15 PM 82.4 °F 88.2 °F 73.4 °F 74% 29.87 in 10.0 mi South 5.8 mph - N/A   Clear
8:35 PM 82.4 °F 88.2 °F 73.4 °F 74% 29.86 in 10.0 mi South 5.8 mph - N/A   Clear
8:55 PM 80.6 °F 84.6 °F 71.6 °F 74% 29.84 in 10.0 mi SSE 10.4 mph - N/A   Clear
9:15 PM 80.6 °F 84.6 °F 71.6 °F 74% 29.84 in 10.0 mi South 9.2 mph - N/A   Clear
9:35 PM 80.6 °F 84.6 °F 71.6 °F 74% 29.83 in 10.0 mi SSE 10.4 mph - N/A   Clear
9:55 PM 80.6 °F 84.6 °F 71.6 °F 74% 29.83 in 10.0 mi South 11.5 mph - N/A   Clear
10:15 PM 80.6 °F 84.6 °F 71.6 °F 74% 29.85 in 10.0 mi SSE 9.2 mph - N/A   Clear
10:35 PM 80.6 °F 84.6 °F 71.6 °F 74% 29.87 in 10.0 mi SSW 9.2 mph - N/A   Clear
10:55 PM 80.6 °F 84.6 °F 71.6 °F 74% 29.89 in 10.0 mi Calm Calm - N/A   Clear
11:15 PM 78.8 °F - 71.6 °F 78% 29.89 in 10.0 mi South 3.5 mph - N/A   Clear
11:35 PM 78.8 °F - 71.6 °F 78% 29.89 in 7.0 mi SSE 5.8 mph - N/A   Clear
11:55 PM 78.8 °F - 71.6 °F 78% 29.90 in 10.0 mi South 6.9 mph - N/A   Clear